Location: Cabeza Gorda
(40.0667°N, 4.9667°W)
Time: 18:41:08
(UTC+00:00)

SJ-6F - Pass Details

Date: 15 January 2026
Orbit: 541 x 571 km, 97.9° (Epoch: 11 February)

Event Time Altitude Azimuth Distance (km) Brightness Sun altitude
Rises 07:08:48 0° 13° (NNE) 2,738 7.8 -6.3°
Reaches altitude 10° 07:10:57 10° 14° (NNE) 1,835 6.9 -5.9°
Maximum altitude 07:14:55 83° 102° (ESE) 557 4.5 -5.2°
Drops below altitude 10° 07:18:49 10° 191° (S) 1,804 7.1 -4.5°
Sets 07:20:55 0° 192° (SSW) 2,689 8.0 -4.1°
